Wind_Speed
74 77 79 82 85 89 93 95 96 97 99 100 98 98 99 99 100 103 105 106 108 110 112 113 113 113 114 114 113 110 109 107 104 101 99 97 96 94 94 94 93 92 89 87 83 79 76 77 84 89 92 94 94 94 95 94 94 94 93 94 93 92 92 91 90 90 89 89 88 86 85 85 84 83 83 83 83 82 82 82 82 82 81 81 80 80
68 72 76 81 85 87 90 91 92 95 98 98 96 96 99 100 100 102 104 104 106 109 111 112 111 111 112 112 112 110 109 108 106 102 99 97 96 95 94 93 92 93 92 90 88 83 76 72 76 85 89 90 92 92 94 95 96 96 96 95 95 94 94 94 93 92 92 92 91 90 89 88 87 86 86 86 85 85 85 84 84 84 84 84 84 83
62 68 76 81 82 83 84 85 86 90 94 95 94 95 98 100 100 101 103 103 105 108 109 109 110 110 111 110 110 109 109 108 106 102 99 97 96 95 94 91 89 91 93 93 92 90 86 77 76 85 90 89 90 91 92 95 96 98 98 98 97 97 96 96 95 94 94 94 94 93 92 91 90 89 89 88 87 87 86 87 87 87 87 86 86 86
58 66 73 76 77 78 79 80 82 86 90 91 91 94 97 99 98 98 100 101 103 105 106 106 108 109 110 110 109 109 108 107 105 102 99 97 96 95 95 93 89 89 92 94 94 93 92 87 81 86 93 92 90 90 92 93 95 97 99 99 100 99 99 99 97 96 96 96 95 95 94 93 93 92 91 91 90 89 89 89 90 90 90 89 89 89
55 62 66 70 73 74 75 76 78 82 86 87 88 91 94 95 94 94 96 98 100 103 104 105 108 110 110 109 109 109 108 106 104 102 99 96 95 94 95 95 92 90 89 91 94 94 94 93 89 90 94 94 93 93 93 94 95 97 98 99 100 100 100 100 100 99 98 98 97 97 96 95 95 95 94 93 93 92 92 92 92 92 92 92 91 91
52 55 58 64 69 71 72 73 75 78 81 83 84 87 90 91 92 92 94 97 100 102 102 105 108 110 110 109 109 109 108 106 104 102 100 97 94 94 94 94 93 93 91 89 91 94 94 95 95 94 94 95 96 97 97 98 99 101 101 101 101 101 101 101 101 101 101 100 99 99 98 97 96 96 96 96 96 96 95 95 94 94 94 94 93 92
47 48 52 58 64 67 70 71 73 75 78 79 79 83 86 88 90 92 93 96 98 100 101 104 107 107 108 108 107 108 107 106 105 103 101 99 96 94 94 93 93 93 93 91 89 91 93 95 96 96 96 97 97 99 100 101 102 104 106 105 104 103 103 103 103 103 103 102 102 101 100 99 98 98 98 98 99 99 99 99 98 98 98 98 98 98
41 43 47 53 58 63 67 69 71 73 74 74 75 79 83 86 90 92 92 94 96 97 99 103 105 105 106 106 106 106 106 105 105 103 102 100 97 96 95 94 93 94 95 93 91 90 91 94 96 98 99 100 100 100 101 102 103 105 108 109 107 105 104 104 104 104 104 103 103 103 103 102 101 100 100 100 101 101 102 102 102 102 102 102 103 103
36 40 43 47 53 59 65 68 70 71 71 71 73 77 82 86 90 92 91 92 95 96 99 101 104 105 105 105 105 105 104 103 103 103 101 100 98 96 96 96 95 94 94 94 94 94 94 95 96 98 100 101 101 102 103 103 105 106 108 110 109 107 106 106 106 105 105 105 104 104 104 104 103 103 102 102 102 103 103 103 103 104 104 105 105 106
33 37 39 43 49 57 64 67 68 69 69 70 73 78 83 88 91 93 92 92 94 97 99 100 102 104 104 104 104 103 102 101 101 102 101 100 98 97 96 97 97 96 95 95 97 98 98 98 98 98 99 100 101 103 104 105 106 108 109 110 111 110 108 108 108 107 107 107 106 106 106 106 106 105 105 105 105 105 105 105 106 106 107 107 108 108
30 34 38 42 48 55 60 64 65 66 68 70 73 78 83 88 90 91 91 92 95 98 98 99 101 103 103 103 103 103 102 101 102 103 102 101 100 99 98 98 99 99 97 96 97 98 99 99 100 100 100 101 102 103 105 107 108 109 110 111 111 112 111 110 109 109 108 108 107 108 108 108 108 108 108 108 108 109 109 109 109 110 110 110 110 111
27 32 37 41 46 50 55 60 63 65 67 70 74 78 82 86 89 89 89 92 95 96 96 97 100 103 104 104 105 105 104 103 103 103 103 101 101 101 100 99 99 99 99 97 96 96 97 98 99 100 101 101 103 103 105 106 108 109 110 110 111 112 112 111 110 109 109 109 109 109 109 109 109 109 110 110 110 110 110 111 111 112 112 112 113 114
24 30 34 38 42 48 53 58 62 64 66 69 73 77 80 83 87 88 89 91 91 91 92 94 98 102 103 104 105 105 105 104 103 103 102 101 102 102 101 99 98 98 99 99 97 96 95 96 97 99 100 100 101 102 103 105 106 107 108 110 111 112 112 112 111 111 110 110 110 110 110 110 110 110 110 110 111 111 111 112 112 113 114 114 115 116
21 26 31 35 41 47 52 56 59 61 64 68 72 74 76 80 83 84 85 86 85 85 88 91 95 99 101 102 103 104 104 104 103 103 101 100 101 102 100 99 99 97 97 97 98 98 97 96 97 98 99 99 100 101 103 105 106 107 107 108 109 111 111 112 112 112 112 111 111 111 111 111 112 112 112 112 112 112 113 113 114 114 115 116 116 117
19 24 30 35 41 46 51 54 57 59 63 67 69 69 72 76 78 79 79 79 79 81 84 89 93 95 96 97 99 101 102 102 102 102 101 99 100 101 100 99 99 99 98 97 97 98 98 98 98 99 99 100 101 103 105 106 107 107 107 108 108 109 110 111 112 112 112 112 112 112 112 112 112 113 113 113 113 114 114 115 116 116 117 118 118 119
18 24 30 35 40 45 50 53 56 59 62 64 66 67 70 73 74 75 76 75 76 79 83 87 89 89 91 93 95 97 99 100 101 100 100 99 100 100 99 99 100 100 99 99 98 96 96 97 98 100 101 103 105 106 107 107 108 108 108 108 109 109 110 111 111 112 112 113 113 113 113 113 113 114 114 114 115 116 116 117 118 118 119 120 121 122
18 23 29 34 39 44 48 52 54 57 59 60 61 64 67 69 71 73 75 76 77 80 82 84 85 86 88 92 94 96 97 97 98 98 99 98 99 99 99 99 100 100 100 101 100 99 98 96 97 98 100 104 107 107 108 109 109 110 110 110 111 111 111 112 112 112 113 113 113 114 114 114 115 115 116 117 117 118 118 119 119 120 121 122 122 123
19 23 28 32 37 41 46 49 51 53 55 57 58 59 62 65 67 70 72 73 75 78 79 80 82 84 87 89 91 93 94 94 95 96 97 97 98 98 99 99 100 100 101 101 101 102 102 101 100 99 99 101 104 105 106 107 108 108 109 110 111 112 112 112 113 113 114 114 114 115 115 115 115 116 116 117 117 117 118 119 120 121 122 123 124 125
19 22 26 31 36 39 43 47 49 50 52 53 54 55 57 60 62 65 66 68 70 72 74 77 80 82 84 86 88 90 92 93 95 96 97 97 97 97 98 98 99 100 101 101 101 101 103 104 104 104 103 103 104 105 105 106 107 108 109 109 110 111 112 113 113 114 114 114 115 115 115 115 115 116 116 117 117 118 119 120 121 123 124 125 126 127
24 24 23 25 32 37 40 43 46 48 48 49 51 53 54 55 58 61 63 65 67 68 70 73 76 78 81 84 87 89 91 93 94 95 96 97 97 97 97 98 98 99 100 100 101 101 103 104 105 106 107 107 108 108 108 108 108 109 110 110 111 111 112 113 113 113 113 113 114 114 114 115 115 116 117 118 119 120 121 122 124 125 126 127 129 130
27 29 27 21 24 29 33 37 40 43 45 47 50 52 54 55 57 59 61 63 64 65 67 70 73 76 79 82 85 87 89 91 93 94 95 96 96 97 97 98 98 98 99 99 100 101 102 104 105 106 107 108 109 110 110 109 109 109 110 110 111 111 112 112 112 113 113 113 114 114 115 115 116 117 118 119 121 122 123 125 126 128 129 130 132 133
24 30 32 26 21 23 26 29 32 35 38 41 43 46 49 52 54 56 57 58 59 61 63 66 69 72 76 79 82 85 87 89 91 92 94 95 96 97 97 98 98 98 98 99 100 101 102 103 104 105 106 106 107 108 108 108 108 108 109 109 109 110 111 111 112 113 114 114 115 116 117 118 119 120 121 122 123 125 126 127 129 130 132 133 135 136
17 22 30 29 24 21 23 25 28 30 32 34 35 38 42 45 48 50 51 53 55 57 59 62 66 69 72 75 79 82 84 86 88 90 92 94 95 97 98 98 98 98 98 99 99 100 101 102 103 104 105 105 106 107 107 107 107 107 108 108 109 109 111 112 112 113 114 115 116 117 118 119 121 122 123 124 126 127 128 130 131 133 134 135 136 137
18 16 20 25 25 23 21 22 24 27 29 31 33 36 38 40 43 44 46 48 50 52 54 57 61 64 68 72 75 78 81 83 85 88 90 92 94 95 96 97 97 97 98 98 99 100 100 101 102 103 103 104 105 106 106 107 107 107 108 109 109 110 112 113 114 114 115 116 117 118 119 121 122 123 125 126 128 129 130 131 132 133 134 135 136 137
23 19 15 12 16 20 21 22 22 23 26 28 31 33 35 37 39 40 41 43 45 48 50 52 56 59 63 66 69 72 75 78 81 83 86 88 90 92 94 95 95 96 97 97 98 99 99 100 101 102 103 104 105 105 106 107 107 108 109 110 111 112 113 114 115 116 116 118 119 120 121 123 124 125 127 128 129 130 131 132 132 133 134 135 136 136
26 24 20 15 10 7 11 18 21 22 24 26 28 29 31 33 34 36 37 38 41 44 46 48 51 54 57 60 63 67 70 74 76 79 82 84 86 88 90 92 93 94 95 97 98 98 99 100 101 102 103 104 105 105 106 107 108 109 110 111 112 113 114 115 116 117 118 119 120 121 122 124 125 126 127 128 129 130 130 131 132 133 134 135 136 137
33 29 25 20 16 11 5 6 10 14 18 21 23 25 27 29 30 32 33 35 37 39 41 44 46 48 51 54 57 61 65 69 72 75 78 80 82 84 86 88 90 92 93 95 96 97 98 99 100 101 102 103 104 106 107 107 109 110 111 112 113 114 114 115 116 117 118 119 120 121 122 123 124 125 126 127 129 130 131 132 133 134 135 135 136 136
39 35 31 26 21 17 12 7 4 5 8 11 15 18 21 24 26 28 30 31 33 35 37 40 42 44 46 49 52 56 59 63 67 70 73 76 78 81 83 85 87 89 91 93 94 96 97 98 99 100 102 103 104 105 106 107 108 109 110 111 112 113 114 115 116 117 118 119 120 121 122 123 124 125 127 128 129 130 131 131 132 132 132 131 131 130
45 41 37 32 28 24 19 14 9 6 4 5 8 11 14 17 20 22 24 26 28 30 32 34 37 39 42 44 47 50 53 57 61 65 68 72 75 78 80 82 84 86 88 90 92 93 95 96 97 99 100 102 103 104 105 106 107 108 109 110 111 112 113 114 115 116 117 118 119 120 121 122 123 124 125 125 126 126 125 125 124 123 121 120 118 117
53 49 44 39 35 31 27 23 19 14 10 6 4 5 7 10 13 16 18 20 22 24 26 28 30 33 35 37 41 44 47 51 54 58 62 65 69 72 75 78 80 82 84 86 88 90 92 93 95 96 98 99 101 102 103 104 105 106 107 108 109 111 112 113 114 115 115 116 117 117 117 117 117 117 117 116 115 114 113 111 110 109 108 108 108 108
57 54 50 46 42 38 34 30 27 24 20 17 13 9 6 4 4 7 10 13 15 17 20 22 24 26 28 31 34 37 40 43 46 50 54 57 61 64 67 70 73 76 78 81 83 85 87 89 91 92 94 95 97 98 99 100 102 103 104 105 106 107 108 108 108 109 109 109 108 108 107 106 105 103 102 101 100 100 99 99 99 100 101 103 104 106
57 55 53 50 47 44 41 37 34 31 28 25 22 19 16 13 10 7 4 3 5 8 11 14 16 19 22 25 27 30 33 35 38 41 44 48 51 54 58 61 64 67 69 72 75 77 79 81 83 85 86 88 89 91 92 93 94 95 96 97 97 98 98 98 97 97 96 95 94 93 91 90 90 89 89 90 91 92 94 95 97 98 100 102 104 106
58 56 54 52 50 47 44 41 39 36 34 32 29 27 24 21 19 16 13 10 8 5 3 4 6 9 12 15 19 21 24 27 30 32 35 38 41 44 47 49 52 55 58 60 63 65 67 69 71 73 75 77 78 79 81 82 82 83 83 83 83 83 82 82 81 80 79 79 79 79 79 80 82 83 85 87 89 91 93 95 96 98 100 102 104 106
57 56 54 53 51 49 47 44 41 38 36 34 32 30 28 26 24 23 21 19 16 14 12 9 6 4 3 5 7 10 13 16 19 22 25 28 31 33 36 39 41 44 46 48 51 53 55 56 58 60 61 62 63 64 64 65 65 65 66 65 65 66 66 67 68 68 70 71 73 75 77 79 81 83 85 87 89 91 93 94 96 98 100 102 104 106
55 54 53 52 51 50 49 48 46 43 41 38 35 32 30 27 25 24 22 21 20 18 17 15 13 12 10 8 6 5 5 7 9 11 13 16 18 20 23 25 28 30 32 34 36 37 39 40 41 42 44 45 46 47 48 49 51 52 53 55 57 59 61 63 65 67 69 71 73 75 77 79 81 83 85 87 89 91 92 94 95 97 99 101 103 105
53 51 50 49 49 48 48 48 47 46 45 43 41 39 36 33 30 27 24 21 20 18 16 15 13 12 11 9 8 6 4 3 3 3 5 6 8 10 12 14 16 18 19 21 23 25 27 29 31 33 35 37 39 41 43 46 49 51 52 55 57 59 62 64 65 67 70 71 73 75 76 78 80 82 84 86 88 90 91 92 94 95 97 99 101 103
52 50 48 47 46 45 45 45 45 45 44 43 42 40 38 36 34 32 30 28 26 24 22 20 18 16 15 13 12 10 10 9 9 9 9 9 10 11 13 14 16 18 20 22 24 26 28 30 32 34 37 39 41 43 45 47 50 52 53 55 57 59 62 64 65 67 69 70 71 73 74 76 78 80 81 83 85 87 88 89 91 92 94 95 97 100
50 49 47 46 45 44 43 42 41 41 42 41 40 38 37 35 33 31 29 27 25 24 23 21 20 19 18 17 16 16 15 15 15 15 15 15 16 17 18 19 20 21 23 25 27 28 30 32 34 36 38 40 42 43 45 47 49 51 53 54 56 58 60 61 62 64 66 67 68 69 71 73 75 77 79 81 82 84 85 86 88 90 91 93 95 97
46 46 46 44 43 42 42 41 39 39 39 39 38 38 37 35 32 30 27 25 23 21 20 18 17 16 15 15 14 14 14 14 14 14 15 15 16 17 18 20 21 22 24 26 27 29 31 33 35 36 38 39 41 42 44 45 47 48 49 51 53 55 56 57 59 62 63 64 66 68 69 72 74 75 77 79 80 82 83 85 87 89 91 92 94 95
43 43 44 43 42 40 39 39 38 37 37 37 37 37 37 35 33 30 28 26 24 22 20 18 16 15 14 13 13 12 12 12 13 13 13 14 15 16 18 19 21 22 24 25 27 29 30 32 33 35 36 37 38 39 41 42 44 46 47 49 51 53 54 57 59 61 63 65 67 68 70 72 74 76 77 79 80 82 84 86 88 90 91 93 94 95
42 42 42 41 40 38 37 36 35 35 34 34 33 33 34 33 31 29 27 25 23 21 19 17 16 15 14 13 13 12 12 12 12 13 14 14 15 16 17 19 20 22 23 25 26 28 29 30 32 33 34 35 36 38 40 42 44 46 48 50 52 54 56 59 62 63 65 67 69 70 72 73 75 77 78 79 81 84 86 88 90 91 93 94 95 97
44 42 42 41 39 37 36 34 33 33 33 32 31 30 31 30 29 27 26 24 23 20 19 18 17 16 16 16 15 15 15 14 14 14 15 16 18 18 19 20 22 23 25 26 27 29 30 32 33 35 36 37 39 40 42 45 47 49 51 53 55 57 60 63 65 66 69 70 71 73 74 76 78 79 80 81 83 86 88 90 92 93 94 95 96 98
46 44 42 41 39 37 35 34 32 31 32 32 31 30 30 29 28 27 26 25 24 22 21 20 21 21 21 21 20 20 19 19 19 19 19 20 21 22 23 24 25 26 28 30 31 33 34 36 38 39 40 41 43 44 46 48 50 52 54 56 57 60 63 66 68 70 72 73 74 75 77 78 80 81 82 84 86 88 91 92 94 95 96 97 98 99
47 45 43 41 40 38 36 35 33 31 30 31 31 30 30 29 28 27 27 25 24 24 23 23 23 24 24 24 25 24 24 24 24 23 23 24 24 25 26 27 28 29 31 33 34 36 38 40 42 43 45 46 47 48 50 51 53 55 57 59 61 65 68 71 73 75 76 77 78 79 80 81 83 83 84 86 89 91 93 95 96 98 98 99 99 100
49 46 44 42 40 39 38 37 36 33 31 31 31 30 29 29 29 28 27 27 26 25 25 25 26 26 27 27 28 29 28 29 29 28 29 29 30 30 31 31 32 33 35 37 38 40 43 45 47 48 49 50 51 52 53 55 57 59 60 63 66 70 73 75 78 79 80 81 82 82 83 84 85 86 87 89 91 94 96 97 98 100 100 100 100 101
49 47 45 43 41 41 41 40 37 35 33 32 32 32 31 31 30 29 28 28 28 27 26 26 28 29 30 31 31 31 31 32 33 34 35 36 37 37 37 38 38 39 41 42 44 46 48 50 52 53 55 55 55 56 57 59 61 63 65 68 71 74 77 80 82 84 85 86 86 87 87 87 87 88 90 92 94 96 98 99 100 101 102 102 102 102
50 49 46 44 42 42 44 43 38 36 38 37 35 34 34 34 33 31 30 30 30 31 31 30 31 32 33 34 34 33 33 33 35 37 39 41 42 43 44 44 44 45 46 47 49 52 54 55 57 58 59 61 61 60 61 63 65 67 70 73 76 79 82 84 86 88 89 90 90 90 90 90 90 91 93 95 97 99 100 101 102 103 104 104 104 104
50 48 46 45 45 46 49 46 38 36 41 45 43 39 37 35 34 33 32 32 33 34 35 35 35 35 36 37 36 35 36 36 37 39 41 43 45 47 48 49 49 49 50 51 54 56 58 59 60 61 63 64 65 65 66 68 69 71 74 77 80 83 85 88 90 92 93 94 94 94 93 92 93 94 95 97 99 101 103 103 104 105 105 105 105 106
51 48 44 44 48 52 54 51 43 38 41 46 48 45 42 41 39 37 35 34 35 37 38 38 38 38 39 39 38 37 38 39 39 40 43 45 47 49 49 51 52 53 54 56 58 60 62 62 63 65 66 67 68 69 70 72 74 76 79 82 84 86 89 91 93 95 97 97 97 96 95 94 95 96 97 100 102 104 105 106 106 106 107 107 107 108
54 50 46 44 47 52 56 57 53 47 45 47 47 46 45 45 44 42 40 39 38 38 38 38 38 39 41 43 42 41 41 42 43 45 47 49 51 51 52 53 55 56 58 60 62 64 65 66 67 68 70 71 72 73 75 77 79 81 83 86 88 90 92 94 97 98 100 100 100 98 97 96 97 98 100 102 104 106 107 108 108 108 108 109 109 110
55 52 50 48 48 51 55 57 57 54 52 51 50 48 47 47 46 46 47 47 44 39 37 36 37 37 39 43 45 45 45 47 48 49 51 53 55 55 56 57 58 60 62 64 66 67 68 69 71 72 73 74 75 77 79 81 83 85 87 89 91 93 95 97 99 101 102 103 101 100 98 98 98 100 102 104 106 107 109 110 110 110 109 109 110 111
Wind_Direction
232 232 231 230 230 229 228 227 226 227 227 227 227 226 227 226 224 225 225 225 225 226 226 228 228 228 228 228 228 228 228 229 229 229 230 231 233 234 237 237 236 235 235 236 238 241 242 245 248 248 248 248 248 248 248 249 250 250 250 251 251 251 251 252 252 253 255 256 257 257 257 258 259 259 260 261 262 262 263 265 266 267 268 269 269 270
231 229 228 228 227 227 226 225 224 224 225 225 224 224 225 225 223 223 223 223 223 224 225 226 226 227 228 228 228 228 228 228 228 228 229 231 232 233 235 237 238 237 236 235 236 238 239 241 245 247 247 248 249 249 250 250 250 250 250 250 251 251 252 252 252 253 254 256 256 257 257 257 258 259 260 261 262 263 264 265 266 266 267 268 269 270
227 226 226 226 226 225 225 225 223 223 224 223 222 222 223 224 223 222 222 222 221 223 224 225 225 226 226 227 228 228 227 228 228 228 229 230 231 232 234 236 237 238 237 236 236 237 239 240 244 247 247 247 250 250 251 250 250 250 250 250 251 251 252 252 253 253 254 255 256 257 257 257 258 259 260 261 262 263 264 265 266 266 267 268 269 269
225 224 224 224 224 224 223 223 222 222 223 222 221 221 222 223 222 221 221 222 221 222 223 223 225 225 225 226 226 227 227 227 228 228 228 229 230 232 233 234 235 237 238 238 237 237 239 240 242 247 248 248 249 250 251 251 251 251 251 251 251 251 252 253 253 254 254 255 256 256 257 258 259 259 260 261 262 263 264 265 266 267 267 268 268 269
226 225 223 222 222 221 221 221 220 220 221 220 219 219 221 222 222 221 221 221 221 221 221 222 223 224 224 224 225 225 225 226 227 227 227 228 229 231 233 233 233 235 237 239 239 238 239 241 242 246 249 249 248 249 250 251 252 252 252 252 252 252 252 253 254 254 255 255 256 256 257 258 259 260 261 261 262 263 264 265 266 266 266 267 267 267
226 225 222 221 220 219 218 218 218 218 219 219 217 218 219 220 221 221 220 220 221 221 221 221 222 222 223 223 224 225 224 224 225 225 226 226 227 229 231 232 233 234 235 237 239 239 239 241 243 245 247 249 248 249 250 251 251 252 252 252 252 253 253 254 254 255 255 256 257 257 257 258 259 260 261 262 263 263 264 265 265 265 266 266 266 266
225 224 222 220 218 216 215 215 215 216 217 216 215 216 217 219 220 220 219 219 220 220 220 220 222 223 223 223 223 224 224 224 224 224 224 225 225 226 229 230 232 233 234 235 236 238 239 240 242 243 245 247 248 249 249 250 251 253 253 252 252 253 254 255 255 256 256 257 257 258 258 259 259 260 261 262 263 264 264 265 266 266 267 267 267 268
223 221 220 218 216 214 213 213 212 213 214 214 213 214 215 216 219 220 219 218 220 220 219 219 221 222 222 223 223 224 225 224 224 224 224 224 224 225 227 229 230 232 233 234 235 236 238 239 241 242 244 246 247 249 250 251 252 253 254 254 253 254 255 256 256 257 258 258 258 259 260 260 260 261 262 263 263 264 265 266 267 267 268 269 269 270
220 218 217 216 213 211 210 210 210 210 211 210 210 211 213 214 217 219 218 217 218 220 220 219 219 220 221 221 222 223 224 225 224 224 224 225 225 225 227 228 230 232 233 234 234 235 236 237 239 241 243 245 247 248 250 251 252 254 255 256 256 255 255 256 257 258 258 259 259 260 261 261 262 263 263 264 264 265 266 267 268 269 270 270 271 272
214 212 212 212 210 208 207 206 206 207 207 207 208 209 211 213 215 216 217 216 217 218 219 218 219 220 220 220 221 222 223 224 224 224 223 224 225 225 226 228 229 231 232 234 235 236 236 237 239 241 243 244 246 248 249 250 252 254 255 256 257 257 256 257 257 258 259 260 260 261 262 262 263 264 264 265 266 266 267 268 269 270 271 271 272 272
211 206 205 206 206 205 204 203 203 203 204 204 206 207 209 211 214 215 215 215 216 217 217 217 217 219 219 219 220 221 222 222 223 224 223 222 223 224 224 226 229 230 231 233 236 237 238 239 240 241 243 244 246 247 249 250 252 253 255 256 258 258 258 258 258 259 260 261 261 262 263 263 264 265 265 266 267 267 268 269 270 270 271 272 272 272
206 203 202 202 202 201 201 201 200 200 201 202 204 206 208 210 213 214 214 215 215 216 217 216 216 217 218 218 218 219 220 221 222 224 223 222 223 224 224 225 227 230 231 233 235 237 239 240 241 242 243 245 247 248 250 251 253 254 255 256 258 259 260 260 260 260 261 262 262 263 264 264 265 266 267 267 268 269 269 270 271 271 272 272 273 273
201 200 199 199 198 196 196 198 198 197 198 201 203 205 206 209 212 213 213 215 215 216 217 217 217 217 217 217 218 218 219 220 221 223 223 223 223 224 225 225 227 229 231 233 234 236 238 240 241 243 244 246 247 249 250 252 253 254 255 256 258 259 260 261 262 262 263 263 264 264 265 266 267 267 268 269 269 270 270 271 271 272 272 273 273 274
192 195 193 193 193 192 192 193 195 196 197 200 203 204 205 208 211 213 213 214 215 216 218 218 218 218 218 218 219 219 220 220 221 222 223 224 224 225 225 226 228 229 231 233 235 236 238 240 242 243 245 246 248 249 250 251 252 254 255 256 258 259 261 262 263 264 264 265 265 266 266 267 268 269 269 270 271 271 272 272 273 273 273 274 274 275
180 186 185 186 188 188 188 188 190 193 197 200 202 203 205 208 210 213 214 215 216 217 219 220 220 219 219 219 220 221 221 221 222 223 224 224 225 226 226 227 228 229 230 232 235 237 239 241 242 244 245 246 247 249 250 251 253 254 256 257 259 260 261 263 264 265 266 266 267 267 268 269 270 270 271 272 272 273 273 274 274 274 275 275 276 276
170 177 178 180 184 184 184 185 187 191 196 200 201 201 204 207 209 211 213 214 215 217 219 220 221 220 220 220 221 222 223 223 223 224 225 225 226 227 227 228 229 230 231 232 234 236 239 241 243 245 246 247 248 249 251 253 254 255 257 258 259 260 262 263 264 265 266 267 268 269 270 270 271 271 272 273 273 274 274 275 275 276 276 277 277 277
157 169 172 175 179 180 180 181 184 188 193 198 201 202 204 206 208 210 211 212 214 216 218 220 221 220 220 220 221 222 223 224 225 225 226 227 228 228 228 229 230 231 232 233 234 236 238 240 242 245 247 249 250 251 252 254 256 257 258 259 260 261 262 264 265 266 267 268 270 271 271 272 273 273 274 274 275 275 276 277 277 277 278 278 278 278
144 157 164 168 173 176 177 178 181 186 191 195 199 203 204 206 208 210 212 213 214 215 217 218 220 220 220 220 221 222 223 224 225 226 227 228 229 230 230 230 231 232 234 235 236 237 238 239 241 243 246 248 250 252 253 255 257 258 259 260 262 263 264 265 266 268 269 270 271 272 273 274 275 276 276 277 277 278 278 278 278 278 278 278 278 278
127 143 155 164 168 171 175 177 180 185 190 194 197 201 205 207 208 211 213 215 216 217 217 218 220 220 221 221 221 221 222 224 224 226 227 228 229 230 231 232 232 233 235 236 237 238 239 241 242 243 245 247 249 251 253 254 256 258 260 262 263 265 266 267 268 270 271 272 273 274 274 275 276 277 277 278 278 278 278 278 278 278 278 278 278 278
117 126 137 156 164 167 172 176 179 184 188 192 196 199 203 206 209 211 213 215 217 218 219 219 220 220 221 222 222 222 222 223 224 225 226 228 229 230 231 232 233 234 236 237 238 240 241 242 244 245 246 248 250 252 253 255 257 259 261 263 265 266 268 269 270 271 272 273 274 275 276 276 277 277 278 278 278 278 278 278 279 279 279 279 279 279
118 122 120 134 155 163 170 176 180 184 187 192 197 198 201 204 208 211 213 215 216 217 218 220 221 221 222 222 223 223 223 224 224 225 227 228 229 231 232 233 234 235 237 238 239 241 243 244 246 247 249 250 252 254 255 257 259 261 263 264 266 268 269 270 271 272 273 274 275 275 276 277 277 277 278 278 278 279 279 279 280 280 280 280 280 280
119 124 120 122 138 154 165 173 179 184 189 195 200 202 204 206 209 212 215 217 219 219 219 219 221 222 223 224 225 225 225 225 225 226 227 229 230 231 232 234 235 236 237 239 240 242 244 245 247 249 251 252 254 256 258 259 261 262 264 266 267 269 270 271 272 273 274 275 275 276 276 277 278 278 279 279 279 280 280 280 281 281 281 281 281 282
103 123 125 125 131 145 158 169 175 182 189 195 201 206 210 212 213 215 217 219 221 222 221 221 221 223 224 225 226 227 227 227 227 227 228 229 230 232 233 234 236 237 238 239 241 242 244 246 248 250 252 254 256 257 259 261 262 264 265 267 268 269 270 271 272 274 274 275 276 277 278 278 279 279 280 280 280 280 281 281 281 281 282 282 282 283
71 95 120 129 135 142 153 165 176 182 188 195 201 206 212 216 218 219 220 221 223 225 225 224 225 225 226 227 228 229 229 229 229 229 230 231 232 233 234 235 237 238 239 241 242 243 245 247 249 251 253 255 257 258 260 262 263 265 266 267 268 269 271 272 273 274 275 276 277 277 278 279 279 279 280 280 280 281 281 281 282 282 283 283 284 284
64 67 73 106 136 149 157 165 175 186 192 199 204 209 213 217 220 222 223 223 225 227 228 228 228 228 229 230 232 233 233 233 233 233 233 234 235 235 236 237 239 240 241 242 244 245 246 248 250 252 253 255 257 259 261 262 264 265 266 267 268 269 270 272 273 274 274 275 276 277 277 278 278 279 279 280 281 281 282 283 283 284 284 285 285 286
61 67 64 63 79 125 165 175 181 189 196 202 208 213 217 220 224 225 226 227 228 230 231 231 231 231 232 232 233 235 236 236 236 236 237 237 238 238 239 240 241 242 243 244 246 247 248 249 251 252 254 256 257 259 261 262 263 265 266 267 268 269 270 271 272 273 274 275 276 276 277 278 279 280 280 281 282 283 283 284 285 285 286 286 286 287
58 63 67 70 72 73 96 169 191 200 206 210 214 218 221 224 227 229 230 230 231 233 234 235 235 235 235 234 235 235 236 238 238 239 239 240 240 241 242 243 243 244 245 246 247 248 250 251 252 254 255 257 258 259 261 262 264 265 266 267 268 269 270 271 273 274 275 276 276 277 278 279 280 281 282 283 283 284 285 285 286 286 286 287 287 287
59 61 64 67 72 77 81 93 132 194 217 226 229 231 232 233 235 235 236 235 235 235 236 237 237 237 236 236 235 236 236 237 239 240 241 242 242 243 244 245 245 246 247 248 249 250 251 252 253 255 256 257 259 260 261 263 264 265 266 268 269 270 271 272 273 274 275 276 277 278 279 280 281 282 283 283 284 284 285 285 286 286 286 287 287 287
56 58 62 64 67 70 74 78 88 110 153 206 226 234 239 241 243 244 245 245 243 242 241 240 240 240 239 238 238 237 237 238 238 239 240 241 242 243 244 245 246 247 248 249 251 252 253 254 255 256 257 258 260 261 262 263 265 266 267 268 269 271 272 273 274 275 276 277 278 279 280 281 282 282 283 283 284 284 285 286 286 287 287 287 288 288
52 53 55 58 62 66 69 72 77 82 89 102 141 194 220 231 237 242 245 246 247 246 246 245 244 243 242 242 241 240 240 240 240 241 242 242 243 244 245 246 247 248 250 251 252 253 254 255 256 257 258 259 261 262 263 264 265 267 268 269 271 272 273 274 275 276 277 278 279 279 280 281 282 282 283 284 285 285 286 287 288 288 289 289 290 290
47 50 52 53 56 58 62 65 70 73 76 80 84 92 108 147 200 224 234 240 243 245 246 245 245 244 243 243 242 242 242 242 242 242 243 244 245 246 247 248 249 250 251 252 253 254 255 256 257 259 260 261 262 264 265 266 267 269 270 271 272 273 274 275 276 277 278 278 279 280 281 282 283 283 284 285 286 287 288 289 290 290 291 291 291 291
40 43 46 48 51 54 56 59 61 64 66 69 73 77 81 86 92 102 126 180 221 236 243 245 246 247 246 246 246 246 246 245 245 245 245 245 246 247 248 249 250 251 252 254 255 256 257 258 259 261 262 263 264 265 267 268 269 270 271 272 273 274 275 276 277 278 279 279 280 281 282 283 285 286 287 288 289 289 290 290 291 291 291 291 291 292
32 35 37 40 42 45 49 53 56 59 61 63 65 67 70 74 77 81 85 90 98 111 145 207 230 239 243 246 247 248 249 250 250 250 250 250 250 251 251 252 253 254 255 256 257 258 259 260 261 262 263 264 265 266 267 268 270 271 272 273 274 275 276 277 278 279 281 282 283 285 286 287 288 289 290 290 290 290 290 290 290 290 290 290 290 290
28 29 31 32 34 35 38 41 45 49 53 57 61 64 66 69 72 74 76 78 81 84 87 93 103 124 173 215 231 239 243 246 248 250 251 252 253 253 254 255 256 256 257 258 259 260 261 262 263 264 265 265 267 268 269 270 271 273 274 276 278 280 281 283 284 285 287 287 288 289 290 290 290 290 289 289 289 289 288 289 289 289 289 289 289 289
26 27 27 28 29 30 31 32 33 35 37 40 44 48 53 59 64 68 73 77 81 84 88 91 95 99 104 114 130 155 183 205 219 229 235 240 244 246 249 250 252 254 256 257 259 260 262 263 265 267 268 270 271 273 275 278 280 281 283 285 287 288 288 289 289 289 289 289 289 289 289 288 288 287 287 287 287 287 287 288 288 288 289 289 289 289
24 25 26 27 27 28 28 28 28 28 28 29 29 30 32 35 38 42 47 52 58 63 68 73 77 82 87 91 96 104 114 135 173 204 225 238 245 251 255 258 261 264 266 268 271 273 275 277 279 280 282 283 285 286 287 288 288 289 289 289 289 289 288 288 288 288 287 287 287 287 287 287 286 286 286 287 287 288 288 289 289 290 290 290 291 291
20 21 23 25 26 27 27 28 28 28 27 26 25 24 24 24 25 25 26 28 29 30 31 32 33 32 31 28 26 21 13 5 355 345 335 325 318 311 306 302 299 297 295 294 293 292 292 291 291 291 290 290 290 290 289 289 288 288 288 287 287 286 286 286 286 286 286 286 287 286 287 287 287 287 288 288 289 289 290 291 291 292 292 292 293 293
15 16 18 19 21 22 23 25 26 26 26 25 25 24 22 21 21 21 21 21 22 21 21 20 19 17 14 10 7 2 357 352 346 340 334 328 323 318 313 309 306 302 300 297 295 294 292 291 290 289 288 288 288 287 286 286 286 286 285 285 285 285 285 286 287 286 287 288 288 288 288 289 289 290 290 291 292 292 293 294 294 294 295 295 295 295
9 10 11 13 14 16 17 19 20 21 21 21 21 21 20 18 18 17 17 17 17 17 17 16 14 11 7 2 357 352 346 341 335 328 323 317 313 309 305 302 298 296 293 291 290 288 287 286 285 285 285 285 285 285 285 284 285 285 285 286 287 287 288 289 290 290 291 291 291 292 292 293 293 294 294 295 296 296 297 297 298 298 298 298 298 298
3 4 5 6 8 9 12 14 15 15 15 15 16 15 15 15 13 12 11 11 10 10 10 10 10 8 5 0 354 346 339 332 325 318 312 308 303 299 296 294 292 290 288 287 286 285 284 284 284 284 284 284 284 285 285 286 287 287 288 290 290 291 293 294 294 295 296 296 296 297 297 298 298 299 299 299 300 301 301 301 301 301 301 301 301 302
357 358 359 0 1 2 4 7 9 9 10 11 11 10 10 10 9 8 6 4 3 3 3 2 2 0 357 353 347 340 334 327 319 312 307 303 299 296 294 293 291 290 289 288 287 286 285 285 285 285 285 286 287 288 290 291 292 293 294 295 296 297 299 300 300 300 301 301 302 302 302 302 303 303 303 303 304 304 304 304 304 304 304 304 304 304
350 351 353 354 356 356 356 359 2 4 5 4 4 4 4 5 5 3 2 359 356 353 351 350 347 345 342 339 335 332 327 321 317 312 307 304 301 299 298 297 296 295 294 293 292 292 291 291 290 290 290 291 292 294 296 298 299 300 301 301 302 304 305 306 306 307 307 307 307 306 306 307 307 306 306 307 307 307 306 306 306 306 306 306 307 307
344 345 346 348 350 351 351 351 353 357 358 358 357 356 356 357 359 358 356 355 352 347 342 339 337 336 335 333 332 330 326 322 317 314 311 308 306 305 303 301 301 301 301 300 300 299 299 298 298 297 297 297 298 299 301 303 304 306 307 307 309 310 312 312 312 312 312 312 311 310 310 310 309 309 309 309 310 310 309 309 309 309 309 309 309 309
338 339 340 342 344 345 345 346 346 347 349 350 350 349 348 348 349 349 348 347 346 344 340 335 333 332 331 331 330 328 326 322 319 315 313 310 308 307 306 305 304 305 306 306 306 306 306 306 305 304 303 303 303 304 305 307 308 310 311 312 314 315 316 317 317 316 316 315 314 314 313 312 311 311 312 312 312 312 312 312 311 311 311 311 311 310
334 333 334 336 337 338 339 340 341 340 340 342 343 343 341 340 338 338 338 338 337 338 337 334 330 327 325 324 324 324 322 320 319 318 316 313 310 309 308 308 307 307 308 309 310 311 312 312 311 310 309 308 308 308 310 311 312 313 314 316 318 319 319 320 319 319 318 318 317 316 315 314 314 314 314 314 314 314 314 313 313 313 313 312 312 312
330 328 329 331 332 333 332 333 335 335 333 335 337 337 336 334 332 329 328 329 330 330 330 330 327 324 322 320 319 320 319 317 317 318 318 316 313 311 310 310 309 309 309 310 311 312 313 314 314 314 313 312 312 312 314 315 316 317 318 319 320 321 321 321 321 320 320 320 319 318 317 316 316 315 315 315 315 315 315 315 314 314 314 313 313 312
327 324 324 326 328 328 326 327 330 330 329 331 334 334 331 330 329 326 323 323 324 324 324 324 323 322 321 318 317 317 316 314 315 317 318 317 315 314 313 313 312 311 311 311 312 313 313 314 314 315 315 314 314 315 317 318 318 319 320 321 321 322 322 321 321 321 321 321 321 319 318 317 317 316 316 316 316 316 315 315 315 315 314 314 313 313
323 321 320 322 325 324 322 324 326 325 326 329 332 331 328 326 325 323 321 321 321 320 321 321 319 317 316 316 316 315 313 311 312 314 316 316 314 314 314 315 314 314 314 314 315 315 315 315 315 315 315 315 315 316 318 319 319 320 321 321 322 322 321 321 321 321 322 322 321 320 319 318 317 317 316 316 316 316 316 316 316 315 315 314 314 314
319 317 315 320 322 320 320 324 326 321 320 324 328 327 325 324 322 320 319 319 319 319 320 321 319 315 313 313 314 313 311 310 310 312 314 314 313 313 313 314 314 315 315 315 315 316 316 316 315 315 315 315 316 318 319 319 320 321 321 321 322 321 321 320 321 321 322 322 321 320 319 318 317 317 316 317 317 317 316 316 316 316 315 315 314 314
313 311 311 318 320 315 317 324 326 321 318 320 322 321 320 321 320 317 314 314 316 318 320 321 318 314 311 311 312 312 311 310 310 312 314 313 313 313 313 313 314 314 314 315 315 315 316 316 316 316 316 316 317 319 320 320 320 321 321 321 321 320 320 320 320 321 322 322 321 320 319 318 317 317 317 317 317 317 316 316 316 316 316 315 315 315
306 304 310 317 316 312 316 322 323 321 320 319 318 318 318 318 318 315 312 311 314 318 319 317 313 309 307 308 310 311 310 310 312 313 314 313 313 313 314 314 314 315 314 315 315 315 315 316 316 316 316 317 318 320 320 321 320 320 320 320 320 319 319 319 320 321 321 321 320 319 318 317 316 316 316 316 316 316 316 316 316 316 316 316 316 316
Height
10362 10370 10378 10384 10389 10394 10401 10411 10424 10436 10444 10453 10468 10484 10494 10503 10513 10519 10528 10541 10549 10556 10562 10568 10581 10592 10599 10607 10618 10630 10639 10646 10655 10663 10670 10676 10680 10684 10687 10692 10700 10707 10712 10716 10716 10715 10716 10713 10709 10713 10718 10721 10726 10729 10732 10734 10734 10736 10739 10739 10742 10744 10745 10747 10748 10750 10752 10752 10753 10758 10760 10760 10761 10762 10762 10762 10763 10765 10766 10766 10767 10768 10768 10768 10769 10769
10354 10362 10367 10368 10372 10378 10387 10399 10413 10423 10431 10441 10458 10474 10482 10488 10498 10506 10516 10529 10537 10542 10550 10559 10573 10584 10592 10601 10612 10623 10631 10637 10647 10656 10663 10669 10673 10677 10680 10685 10692 10698 10704 10709 10710 10709 10709 10707 10704 10705 10710 10714 10718 10721 10723 10725 10725 10726 10729 10730 10732 10734 10735 10737 10740 10743 10744 10744 10745 10748 10750 10751 10753 10754 10755 10755 10756 10758 10759 10759 10760 10761 10761 10761 10761 10762
10344 10348 10349 10352 10361 10372 10383 10395 10408 10417 10423 10434 10451 10463 10470 10476 10487 10498 10507 10518 10526 10531 10542 10555 10566 10575 10584 10595 10605 10615 10624 10631 10641 10650 10657 10662 10667 10671 10675 10681 10685 10688 10695 10699 10702 10704 10702 10701 10698 10698 10703 10708 10710 10712 10713 10714 10716 10717 10719 10721 10723 10725 10727 10728 10731 10734 10735 10735 10737 10739 10741 10744 10745 10747 10748 10749 10750 10751 10752 10752 10752 10753 10754 10754 10754 10754
10333 10333 10337 10346 10358 10368 10379 10390 10401 10409 10415 10428 10443 10453 10460 10467 10477 10490 10500 10512 10521 10526 10538 10552 10559 10567 10576 10585 10595 10605 10615 10625 10634 10644 10651 10656 10661 10665 10669 10675 10678 10680 10684 10689 10694 10698 10697 10695 10693 10691 10695 10702 10703 10703 10703 10704 10706 10707 10709 10712 10715 10717 10718 10720 10722 10725 10726 10727 10729 10731 10733 10736 10737 10739 10741 10742 10743 10744 10744 10744 10745 10746 10746 10747 10746 10746
10323 10325 10334 10344 10353 10363 10373 10384 10393 10401 10409 10422 10436 10446 10454 10462 10473 10486 10496 10507 10515 10520 10532 10543 10548 10555 10565 10575 10585 10594 10606 10617 10626 10636 10644 10650 10655 10658 10662 10667 10671 10673 10675 10680 10685 10689 10691 10689 10688 10686 10688 10693 10695 10694 10694 10694 10695 10697 10699 10701 10705 10708 10710 10712 10714 10716 10718 10719 10721 10723 10726 10728 10730 10731 10733 10735 10736 10736 10737 10737 10737 10738 10738 10738 10737 10737
10317 10323 10332 10340 10347 10358 10368 10377 10387 10396 10404 10415 10430 10441 10449 10459 10469 10479 10489 10498 10505 10512 10524 10533 10535 10542 10554 10566 10576 10586 10598 10608 10617 10627 10635 10642 10647 10651 10654 10658 10663 10666 10668 10672 10675 10679 10682 10682 10681 10681 10680 10682 10684 10685 10685 10685 10685 10686 10689 10692 10695 10699 10702 10704 10706 10708 10709 10711 10713 10715 10718 10720 10722 10723 10725 10726 10727 10728 10728 10728 10728 10728 10728 10728 10728 10729
10314 10322 10329 10334 10343 10352 10362 10371 10380 10389 10398 10410 10425 10436 10444 10455 10463 10470 10480 10489 10496 10506 10518 10525 10529 10539 10551 10561 10571 10580 10590 10600 10609 10618 10626 10633 10638 10641 10645 10648 10652 10656 10659 10663 10667 10670 10672 10673 10672 10672 10672 10672 10674 10675 10676 10677 10677 10676 10678 10682 10687 10690 10693 10695 10697 10699 10701 10703 10705 10708 10710 10712 10714 10715 10716 10717 10718 10718 10718 10718 10718 10719 10719 10720 10720 10720
10312 10318 10324 10330 10338 10348 10357 10366 10375 10384 10395 10408 10422 10432 10440 10450 10456 10462 10472 10483 10492 10502 10511 10517 10525 10537 10547 10557 10567 10575 10584 10594 10603 10611 10619 10625 10631 10634 10637 10640 10643 10646 10650 10656 10659 10661 10661 10661 10661 10661 10662 10664 10665 10667 10668 10669 10670 10669 10669 10672 10679 10683 10685 10687 10689 10691 10693 10696 10698 10699 10701 10703 10705 10707 10708 10709 10709 10709 10709 10710 10710 10710 10711 10711 10711 10711
10309 10315 10321 10328 10335 10344 10352 10360 10370 10380 10392 10405 10416 10425 10434 10442 10447 10454 10465 10475 10485 10494 10501 10509 10518 10527 10537 10549 10559 10568 10577 10588 10597 10606 10613 10618 10624 10629 10631 10634 10637 10639 10644 10647 10648 10648 10648 10649 10651 10652 10654 10656 10658 10660 10661 10662 10662 10663 10663 10664 10669 10675 10678 10679 10680 10683 10685 10687 10690 10692 10693 10695 10697 10698 10700 10700 10700 10700 10700 10701 10701 10702 10702 10702 10701 10701
10305 10311 10318 10325 10331 10337 10344 10353 10365 10377 10389 10400 10409 10418 10426 10432 10437 10444 10455 10468 10477 10483 10491 10502 10512 10519 10531 10543 10553 10563 10573 10582 10589 10596 10604 10610 10616 10621 10624 10626 10629 10631 10635 10636 10635 10637 10639 10642 10643 10645 10647 10649 10651 10652 10654 10655 10655 10656 10658 10658 10660 10664 10668 10671 10672 10675 10677 10679 10682 10684 10685 10687 10688 10690 10691 10692 10692 10692 10692 10692 10692 10692 10692 10692 10691 10691
10304 10308 10314 10320 10325 10332 10341 10352 10363 10374 10384 10393 10402 10411 10417 10424 10431 10439 10449 10459 10466 10472 10482 10495 10505 10514 10526 10537 10546 10556 10565 10572 10576 10582 10592 10600 10604 10609 10612 10615 10618 10622 10626 10627 10628 10631 10633 10636 10637 10639 10640 10642 10643 10645 10646 10648 10649 10650 10651 10652 10653 10654 10657 10661 10664 10668 10670 10672 10674 10675 10677 10678 10680 10681 10682 10683 10683 10683 10683 10683 10683 10683 10682 10681 10680 10679
10303 10307 10312 10317 10324 10333 10343 10352 10361 10370 10379 10389 10397 10404 10412 10420 10426 10434 10442 10448 10454 10464 10476 10488 10498 10505 10516 10526 10534 10544 10552 10559 10566 10572 10581 10590 10593 10597 10602 10606 10609 10613 10618 10621 10622 10624 10627 10630 10631 10632 10634 10635 10637 10639 10640 10641 10642 10643 10644 10644 10645 10646 10648 10652 10656 10660 10663 10665 10666 10667 10668 10669 10671 10672 10673 10673 10674 10674 10674 10674 10673 10672 10671 10670 10669 10668
10303 10307 10313 10319 10326 10333 10341 10351 10360 10368 10377 10386 10393 10399 10408 10416 10421 10428 10435 10441 10452 10466 10476 10485 10492 10499 10509 10518 10527 10535 10543 10551 10559 10565 10573 10582 10586 10591 10597 10601 10605 10608 10611 10614 10616 10618 10621 10623 10624 10625 10627 10629 10631 10632 10632 10632 10633 10634 10635 10636 10638 10640 10642 10645 10648 10651 10654 10656 10658 10659 10660 10661 10662 10662 10663 10664 10664 10664 10664 10663 10662 10661 10660 10659 10657 10656
10304 10310 10315 10321 10327 10333 10340 10351 10362 10371 10379 10384 10390 10398 10408 10414 10420 10427 10435 10444 10458 10470 10476 10482 10488 10495 10505 10516 10524 10532 10539 10547 10555 10561 10568 10576 10581 10586 10593 10597 10600 10604 10607 10609 10610 10613 10615 10616 10617 10619 10621 10624 10624 10623 10622 10622 10624 10625 10627 10629 10632 10634 10637 10639 10641 10643 10645 10648 10649 10651 10652 10652 10652 10653 10654 10654 10654 10653 10653 10652 10651 10650 10648 10647 10645 10643
10306 10311 10316 10322 10328 10334 10342 10351 10362 10372 10379 10384 10390 10401 10410 10416 10423 10433 10442 10453 10465 10473 10476 10480 10484 10494 10506 10517 10525 10532 10538 10545 10552 10558 10565 10572 10576 10581 10588 10592 10595 10599 10601 10603 10605 10607 10609 10611 10611 10612 10614 10615 10614 10613 10613 10614 10617 10619 10622 10625 10626 10628 10630 10632 10634 10635 10637 10638 10640 10642 10643 10643 10643 10644 10644 10644 10643 10643 10642 10641 10639 10637 10636 10634 10632 10630
10309 10314 10318 10324 10330 10337 10345 10353 10362 10370 10378 10386 10393 10402 10409 10416 10425 10435 10445 10456 10465 10469 10472 10477 10484 10497 10509 10516 10523 10530 10536 10542 10549 10556 10562 10567 10571 10576 10583 10587 10589 10592 10595 10597 10599 10601 10603 10604 10604 10604 10605 10605 10604 10606 10608 10609 10611 10614 10617 10618 10620 10621 10623 10624 10626 10627 10628 10630 10631 10632 10633 10634 10634 10634 10634 10633 10633 10632 10630 10629 10627 10625 10623 10621 10618 10616
10314 10318 10323 10328 10335 10342 10349 10357 10366 10373 10381 10390 10398 10405 10411 10417 10426 10435 10442 10451 10459 10462 10468 10476 10485 10496 10504 10511 10519 10526 10533 10541 10548 10553 10558 10563 10567 10571 10577 10581 10583 10586 10589 10591 10594 10595 10597 10597 10597 10597 10597 10597 10597 10600 10603 10603 10605 10607 10609 10611 10612 10614 10615 10617 10618 10619 10620 10621 10621 10622 10623 10623 10623 10623 10622 10622 10621 10620 10619 10617 10614 10612 10610 10607 10605 10602
10321 10325 10330 10335 10341 10349 10355 10362 10370 10378 10385 10392 10400 10408 10414 10421 10428 10435 10441 10449 10456 10461 10468 10476 10483 10491 10499 10507 10517 10525 10532 10539 10545 10549 10554 10559 10563 10566 10571 10574 10577 10579 10582 10585 10587 10589 10590 10591 10591 10592 10592 10591 10591 10594 10597 10597 10598 10599 10601 10602 10604 10606 10607 10609 10610 10611 10611 10612 10613 10613 10613 10612 10612 10611 10610 10610 10609 10607 10606 10603 10601 10598 10596 10593 10590 10588
10330 10334 10338 10343 10348 10355 10363 10369 10376 10383 10390 10396 10403 10410 10417 10424 10431 10437 10445 10453 10459 10464 10471 10476 10481 10488 10497 10505 10514 10521 10527 10532 10538 10543 10548 10552 10556 10560 10564 10567 10570 10573 10575 10579 10581 10583 10584 10585 10586 10587 10587 10586 10586 10588 10590 10591 10592 10593 10594 10595 10597 10598 10599 10601 10602 10603 10604 10604 10604 10604 10604 10603 10602 10601 10600 10598 10596 10594 10592 10589 10587 10584 10581 10579 10576 10573
10338 10343 10349 10355 10358 10363 10370 10376 10382 10388 10395 10401 10406 10412 10419 10427 10434 10440 10446 10453 10458 10464 10471 10476 10481 10488 10495 10502 10507 10514 10519 10524 10530 10536 10541 10545 10550 10554 10558 10561 10564 10567 10570 10574 10576 10577 10578 10579 10580 10581 10582 10581 10581 10582 10583 10585 10587 10588 10589 10590 10591 10592 10592 10593 10594 10594 10595 10595 10595 10594 10593 10592 10591 10589 10588 10585 10583 10580 10577 10575 10572 10569 10566 10563 10560 10557
10347 10349 10356 10366 10371 10375 10379 10385 10390 10395 10400 10404 10408 10413 10420 10427 10433 10439 10445 10451 10456 10463 10469 10475 10481 10486 10491 10496 10501 10507 10514 10520 10526 10531 10536 10541 10546 10549 10552 10555 10558 10562 10566 10569 10571 10573 10573 10574 10575 10576 10577 10577 10577 10577 10579 10582 10583 10585 10585 10585 10585 10585 10585 10585 10585 10585 10585 10584 10584 10583 10582 10580 10579 10577 10574 10571 10569 10566 10563 10560 10557 10553 10550 10547 10543 10540
10358 10357 10361 10371 10379 10384 10389 10393 10399 10404 10408 10411 10416 10420 10424 10429 10434 10440 10446 10452 10458 10463 10469 10475 10480 10484 10488 10493 10498 10503 10510 10516 10522 10527 10532 10537 10541 10544 10547 10550 10553 10557 10561 10564 10566 10567 10568 10569 10570 10571 10572 10572 10573 10573 10575 10576 10578 10579 10579 10579 10579 10578 10577 10577 10576 10575 10574 10573 10572 10571 10570 10568 10566 10563 10560 10558 10555 10552 10548 10545 10541 10537 10534 10530 10526 10523
10370 10369 10370 10375 10383 10390 10395 10400 10404 10409 10414 10418 10422 10426 10429 10433 10438 10443 10449 10454 10459 10463 10469 10474 10478 10483 10488 10492 10496 10500 10506 10512 10517 10522 10527 10531 10535 10538 10540 10544 10548 10552 10555 10558 10560 10562 10563 10564 10565 10566 10567 10567 10568 10568 10569 10570 10571 10572 10572 10571 10571 10570 10569 10568 10567 10566 10564 10562 10561 10559 10557 10555 10552 10549 10546 10543 10540 10537 10533 10530 10526 10522 10519 10515 10511 10507
10381 10382 10382 10384 10389 10394 10400 10405 10409 10413 10417 10421 10425 10428 10432 10436 10441 10445 10450 10456 10460 10464 10469 10474 10478 10483 10487 10491 10494 10499 10504 10509 10514 10518 10522 10526 10530 10533 10536 10540 10544 10547 10550 10553 10555 10556 10558 10559 10560 10561 10562 10562 10562 10562 10563 10564 10564 10565 10564 10564 10563 10562 10560 10559 10558 10556 10554 10552 10550 10548 10545 10542 10539 10536 10532 10529 10526 10522 10519 10516 10512 10508 10503 10499 10494 10489
10389 10391 10393 10395 10397 10400 10404 10408 10413 10416 10420 10424 10427 10430 10434 10437 10441 10446 10451 10456 10460 10464 10468 10473 10478 10482 10487 10491 10495 10499 10504 10508 10513 10517 10520 10524 10527 10530 10534 10537 10541 10544 10546 10548 10550 10551 10553 10555 10555 10556 10556 10557 10557 10557 10558 10558 10558 10558 10557 10556 10554 10553 10551 10550 10548 10546 10544 10542 10539 10536 10533 10530 10526 10523 10520 10516 10512 10509 10505 10501 10497 10492 10488 10482 10477 10472
10397 10398 10400 10403 10405 10407 10410 10412 10415 10418 10421 10425 10428 10432 10435 10438 10442 10446 10451 10456 10459 10463 10467 10472 10476 10481 10486 10490 10494 10498 10502 10506 10510 10514 10518 10521 10524 10527 10531 10534 10538 10540 10542 10543 10545 10546 10548 10550 10550 10550 10551 10552 10552 10552 10552 10551 10550 10550 10548 10547 10545 10544 10542 10540 10538 10536 10533 10531 10528 10525 10522 10518 10514 10511 10507 10503 10500 10495 10491 10486 10482 10477 10472 10467 10461 10456
10405 10405 10406 10408 10410 10413 10416 10418 10420 10423 10425 10428 10431 10434 10436 10439 10442 10446 10450 10454 10458 10462 10466 10469 10474 10478 10483 10487 10491 10495 10498 10502 10506 10510 10514 10517 10521 10524 10527 10530 10533 10535 10536 10538 10539 10540 10542 10544 10544 10544 10545 10545 10545 10545 10544 10543 10542 10541 10539 10537 10536 10534 10532 10530 10527 10525 10522 10519 10517 10514 10510 10507 10503 10499 10495 10491 10486 10482 10477 10472 10467 10462 10457 10451 10446 10440
10413 10413 10413 10414 10415 10417 10420 10422 10425 10427 10429 10432 10434 10436 10439 10441 10443 10446 10449 10453 10457 10460 10463 10467 10470 10474 10478 10482 10486 10490 10494 10497 10501 10505 10508 10512 10515 10518 10521 10524 10526 10528 10530 10531 10532 10534 10535 10536 10537 10538 10538 10537 10537 10537 10536 10535 10533 10532 10530 10528 10526 10524 10522 10520 10517 10515 10512 10509 10506 10503 10499 10496 10492 10487 10483 10478 10473 10468 10463 10458 10452 10447 10442 10436 10430 10424
10422 10421 10421 10421 10421 10422 10423 10425 10427 10429 10431 10433 10435 10437 10439 10442 10444 10446 10449 10452 10455 10458 10461 10464 10467 10471 10474 10478 10482 10485 10489 10492 10495 10499 10502 10505 10508 10510 10513 10516 10518 10520 10522 10523 10525 10526 10527 10528 10529 10529 10529 10528 10528 10528 10527 10525 10524 10522 10520 10518 10517 10515 10512 10510 10508 10505 10502 10498 10495 10492 10488 10484 10480 10475 10470 10465 10460 10454 10449 10444 10438 10432 10426 10420 10414 10408
10431 10430 10429 10429 10428 10428 10429 10429 10430 10432 10433 10434 10435 10437 10439 10441 10443 10445 10447 10449 10452 10455 10458 10461 10464 10467 10471 10474 10477 10480 10483 10487 10490 10493 10496 10498 10501 10504 10506 10509 10511 10513 10514 10516 10517 10518 10519 10520 10520 10520 10520 10519 10519 10518 10517 10516 10514 10513 10511 10510 10508 10506 10503 10501 10498 10495 10492 10488 10485 10481 10477 10473 10468 10463 10457 10452 10446 10441 10436 10430 10424 10418 10412 10406 10400 10393
10440 10439 10439 10438 10437 10436 10435 10435 10435 10435 10436 10436 10437 10438 10440 10441 10442 10444 10446 10448 10450 10452 10454 10457 10460 10463 10466 10468 10471 10474 10477 10481 10484 10487 10490 10492 10495 10497 10499 10501 10503 10505 10507 10508 10509 10509 10510 10511 10511 10511 10511 10510 10510 10509 10509 10508 10506 10504 10503 10501 10499 10496 10494 10491 10488 10484 10481 10477 10473 10469 10465 10460 10456 10450 10445 10439 10434 10429 10423 10418 10412 10406 10399 10393 10387 10380
10447 10446 10446 10445 10445 10444 10443 10442 10441 10441 10440 10440 10440 10441 10441 10442 10443 10444 10446 10447 10449 10451 10453 10455 10457 10459 10462 10464 10467 10469 10472 10475 10478 10480 10483 10485 10488 10490 10492 10494 10496 10498 10499 10500 10501 10501 10502 10503 10503 10503 10503 10503 10502 10501 10500 10499 10497 10495 10493 10491 10488 10486 10483 10480 10476 10473 10470 10466 10462 10458 10453 10449 10444 10439 10434 10428 10423 10418 10412 10407 10401 10395 10388 10381 10375 10368
10452 10452 10451 10450 10450 10450 10450 10449 10449 10448 10447 10447 10446 10446 10446 10446 10446 10447 10447 10448 10449 10451 10452 10454 10456 10458 10460 10462 10464 10466 10468 10470 10473 10475 10478 10480 10482 10484 10486 10488 10489 10490 10491 10492 10493 10494 10494 10495 10495 10495 10495 10494 10493 10492 10491 10489 10487 10485 10482 10480 10478 10475 10472 10469 10466 10463 10459 10455 10451 10447 10443 10438 10434 10428 10423 10418 10412 10407 10401 10396 10391 10384 10377 10370 10363 10356
10458 10457 10456 10455 10454 10453 10453 10453 10453 10453 10453 10453 10453 10452 10452 10452 10452 10451 10451 10452 10452 10453 10454 10455 10456 10458 10459 10461 10462 10464 10466 10468 10469 10471 10473 10475 10476 10478 10479 10481 10482 10483 10484 10485 10485 10486 10486 10486 10486 10486 10486 10485 10484 10483 10481 10480 10478 10475 10473 10471 10468 10465 10462 10459 10456 10453 10449 10446 10442 10438 10434 10429 10424 10419 10413 10408 10402 10396 10391 10385 10380 10373 10366 10358 10351 10344
10464 10462 10461 10460 10459 10457 10456 10455 10455 10455 10454 10454 10455 10455 10455 10455 10456 10456 10456 10456 10456 10457 10457 10458 10458 10459 10460 10461 10463 10464 10465 10466 10468 10469 10470 10471 10473 10474 10475 10476 10477 10477 10478 10479 10479 10479 10479 10479 10478 10478 10477 10477 10476 10474 10473 10471 10469 10466 10464 10463 10460 10457 10453 10450 10448 10445 10441 10437 10434 10430 10425 10421 10415 10409 10403 10397 10392 10386 10380 10374 10368 10362 10354 10346 10339 10332
10471 10469 10467 10466 10464 10463 10461 10460 10459 10458 10457 10456 10456 10456 10456 10456 10456 10456 10457 10457 10457 10458 10458 10458 10459 10460 10460 10461 10462 10463 10464 10465 10466 10467 10468 10468 10469 10470 10471 10472 10472 10473 10473 10473 10473 10473 10473 10473 10472 10471 10471 10470 10469 10467 10466 10464 10461 10459 10458 10456 10453 10450 10446 10443 10441 10437 10432 10429 10426 10421 10416 10411 10405 10399 10393 10387 10380 10374 10368 10363 10356 10349 10342 10334 10326 10319
10478 10476 10474 10472 10471 10469 10468 10466 10465 10463 10462 10461 10460 10460 10459 10458 10458 10457 10457 10457 10457 10457 10458 10458 10459 10459 10460 10460 10461 10462 10462 10463 10464 10464 10465 10466 10467 10467 10468 10468 10469 10469 10469 10469 10469 10469 10468 10468 10467 10466 10465 10464 10463 10462 10460 10458 10456 10454 10452 10449 10446 10443 10439 10436 10434 10429 10424 10421 10417 10412 10407 10401 10394 10388 10382 10375 10369 10362 10356 10350 10343 10336 10329 10321 10313 10305
10483 10481 10479 10477 10476 10474 10473 10472 10470 10469 10468 10467 10466 10465 10464 10464 10463 10462 10461 10461 10460 10460 10460 10460 10460 10460 10461 10461 10461 10462 10462 10463 10464 10464 10464 10465 10465 10466 10466 10466 10466 10466 10466 10466 10466 10465 10464 10464 10463 10462 10461 10460 10458 10457 10455 10452 10450 10448 10445 10443 10439 10435 10432 10429 10424 10419 10415 10412 10407 10401 10396 10390 10383 10376 10370 10363 10357 10350 10344 10337 10330 10323 10316 10308 10300 10292
10488 10486 10484 10482 10480 10478 10477 10475 10474 10473 10472 10471 10471 10470 10469 10468 10467 10467 10466 10465 10465 10464 10464 10463 10463 10463 10463 10463 10463 10463 10464 10464 10464 10464 10464 10464 10465 10465 10464 10464 10464 10464 10463 10463 10462 10462 10461 10460 10459 10457 10456 10455 10453 10451 10449 10446 10444 10441 10438 10435 10431 10427 10424 10420 10414 10409 10406 10401 10395 10390 10384 10378 10371 10364 10358 10351 10345 10338 10331 10323 10316 10309 10302 10294 10287 10278
10492 10490 10488 10486 10485 10483 10481 10479 10477 10476 10475 10474 10473 10472 10471 10470 10469 10469 10468 10468 10467 10467 10466 10466 10466 10465 10465 10465 10465 10465 10465 10464 10464 10464 10464 10464 10464 10463 10463 10462 10462 10461 10461 10460 10459 10458 10457 10455 10454 10452 10451 10449 10448 10445 10442 10439 10436 10433 10429 10426 10421 10418 10414 10409 10403 10399 10395 10389 10384 10378 10372 10365 10359 10352 10345 10339 10332 10324 10317 10310 10302 10295 10288 10280 10272 10264
10494 10493 10491 10490 10488 10487 10485 10483 10481 10480 10478 10477 10476 10474 10473 10472 10471 10470 10470 10469 10469 10468 10468 10468 10467 10467 10467 10467 10466 10466 10465 10465 10465 10464 10463 10463 10462 10462 10461 10461 10460 10459 10458 10457 10455 10454 10452 10451 10449 10447 10445 10443 10440 10437 10434 10430 10427 10423 10420 10415 10411 10408 10403 10397 10392 10388 10383 10377 10371 10366 10360 10353 10346 10339 10333 10326 10319 10311 10303 10296 10289 10282 10274 10266 10259 10250
10494 10493 10492 10491 10490 10489 10488 10486 10485 10483 10481 10480 10478 10477 10476 10475 10474 10473 10472 10471 10470 10470 10469 10469 10468 10468 10468 10467 10466 10466 10465 10464 10464 10463 10462 10461 10460 10460 10459 10458 10457 10455 10454 10453 10451 10449 10447 10445 10442 10440 10438 10435 10432 10428 10425 10421 10417 10413 10409 10405 10401 10397 10392 10386 10381 10376 10370 10365 10359 10353 10347 10340 10333 10326 10320 10313 10306 10297 10289 10282 10275 10268 10261 10253 10245 10237
10494 10493 10492 10491 10490 10490 10489 10488 10486 10485 10483 10481 10480 10478 10477 10476 10475 10474 10473 10472 10471 10470 10469 10468 10467 10466 10465 10465 10464 10463 10462 10461 10460 10460 10459 10458 10457 10456 10455 10453 10452 10450 10449 10447 10445 10443 10440 10438 10435 10433 10430 10427 10423 10419 10415 10411 10407 10403 10399 10394 10391 10386 10380 10375 10370 10364 10358 10353 10347 10341 10335 10327 10320 10314 10307 10300 10293 10284 10276 10269 10261 10253 10246 10239 10232 10223
10492 10492 10492 10491 10490 10489 10488 10487 10487 10485 10484 10482 10480 10479 10477 10476 10474 10473 10472 10471 10470 10469 10467 10466 10465 10464 10463 10462 10461 10460 10459 10458 10456 10455 10454 10453 10452 10451 10449 10448 10446 10444 10442 10440 10438 10436 10433 10430 10427 10424 10421 10418 10414 10410 10406 10401 10397 10393 10388 10384 10380 10374 10369 10364 10358 10352 10347 10341 10335 10329 10322 10315 10308 10301 10294 10287 10279 10271 10263 10255 10247 10238 10230 10224 10217 10208
10490 10489 10489 10489 10489 10488 10487 10486 10485 10484 10483 10481 10480 10478 10476 10475 10473 10472 10470 10469 10468 10467 10465 10464 10462 10461 10460 10459 10458 10456 10455 10454 10452 10451 10449 10448 10446 10445 10443 10441 10439 10437 10435 10433 10430 10428 10425 10422 10419 10416 10413 10409 10405 10401 10397 10392 10387 10382 10378 10373 10368 10363 10358 10352 10346 10341 10335 10329 10323 10317 10309 10302 10295 10288 10281 10273 10266 10258 10250 10241 10233 10224 10216 10209 10202 10193
10487 10485 10486 10487 10486 10485 10484 10484 10484 10482 10480 10479 10478 10476 10474 10473 10471 10470 10468 10467 10465 10464 10463 10461 10459 10457 10456 10454 10453 10452 10451 10449 10447 10446 10444 10442 10439 10438 10436 10434 10432 10430 10427 10425 10422 10420 10417 10413 10410 10407 10404 10400 10396 10392 10387 10382 10377 10372 10367 10362 10357 10352 10346 10341 10335 10329 10323 10317 10311 10304 10296 10289 10282 10275 10267 10260 10252 10244 10236 10228 10220 10211 10201 10194 10187 10178
10483 10481 10480 10482 10483 10482 10480 10480 10481 10480 10477 10476 10476 10475 10472 10470 10468 10466 10465 10463 10462 10460 10458 10457 10455 10453 10451 10449 10448 10447 10445 10443 10442 10440 10438 10436 10433 10430 10428 10426 10424 10422 10419 10416 10414 10411 10408 10405 10401 10398 10394 10390 10386 10382 10377 10372 10367 10362 10357 10352 10346 10341 10335 10329 10323 10317 10311 10305 10298 10291 10283 10276 10269 10262 10254 10247 10239 10231 10223 10215 10206 10197 10188 10180 10172 10163
10480 10477 10475 10476 10477 10476 10475 10476 10477 10476 10473 10470 10470 10470 10470 10468 10466 10464 10461 10460 10458 10456 10454 10452 10450 10448 10446 10444 10443 10441 10439 10437 10436 10434 10432 10429 10426 10424 10421 10419 10416 10414 10411 10408 10405 10402 10398 10395 10392 10389 10385 10380 10376 10372 10367 10361 10356 10351 10346 10341 10335 10330 10324 10318 10311 10305 10299 10293 10286 10278 10271 10264 10256 10249 10242 10234 10226 10218 10209 10201 10193 10184 10174 10166 10158 10149
10472 10472 10473 10473 10471 10468 10467 10469 10473 10473 10470 10466 10464 10463 10463 10462 10461 10459 10458 10456 10454 10451 10450 10447 10445 10443 10440 10438 10438 10436 10433 10431 10430 10428 10426 10423 10420 10418 10415 10412 10409 10406 10402 10399 10396 10393 10389 10386 10382 10379 10375 10370 10366 10362 10356 10351 10346 10341 10336 10330 10324 10319 10312 10306 10300 10293 10287 10281 10273 10266 10259 10252 10244 10237 10229 10221 10213 10204 10195 10187 10179 10170 10160 10150 10142 10134
10461 10463 10467 10471 10470 10464 10459 10460 10464 10466 10465 10463 10462 10460 10458 10456 10454 10453 10452 10451 10450 10448 10447 10444 10441 10437 10434 10432 10431 10430 10427 10424 10423 10421 10419 10416 10412 10410 10408 10405 10402 10398 10394 10391 10388 10383 10380 10376 10372 10369 10364 10360 10355 10351 10345 10340 10335 10330 10325 10319 10313 10307 10300 10294 10288 10282 10275 10268 10260 10253 10246 10239 10231 10224 10216 10208 10200 10191 10181 10172 10163 10156 10147 10136 10125 10116
10451 10453 10458 10464 10464 10461 10459 10456 10457 10457 10456 10455 10455 10455 10454 10452 10450 10448 10445 10444 10445 10445 10444 10441 10438 10435 10431 10427 10425 10423 10421 10417 10415 10414 10411 10407 10403 10401 10398 10396 10393 10389 10385 10382 10379 10374 10370 10367 10363 10358 10354 10349 10345 10340 10334 10329 10324 10318 10313 10308 10302 10295 10289 10282 10276 10270 10263 10255 10248 10241 10234 10226 10219 10211 10204 10196 10187 10178 10169 10158 10148 10139 10132 10124 10113 10101